Location: Berlise
(49.6641°N, 4.1077°E)
Time: 22:51:00
(UTC+00:00)

Cosmos 2098 Rocket - Pass Details

Date: 27 January 2021
Orbit: 366 x 1182 km, 82.9° (Epoch: 01 March)

Event Time Altitude Azimuth Distance (km) Brightness Sun altitude
Rises 06:26:04 0° 344° (NNW) 3,637 6.7 -9.3°
Reaches altitude 10° 06:29:07 10° 333° (NNW) 2,546 5.8 -8.8°
Maximum altitude 06:33:50 27° 278° (W) 1,429 4.4 -8.1°
Drops below altitude 10° 06:37:45 10° 221° (SW) 2,075 5.5 -7.5°
Sets 06:40:01 0° 208° (SSW) 2,850 6.4 -7.1°
